sat.trackr.live / text

‹ back to catalog

COSMOS 2523

NORAD 42986 · 2017-037E

PAYLOAD ACTIVE UNKNOWN

§ Identity

Operator
Country
CIS
Launch date
2017-06-23
Launch site
PLMSC
Launch vehicle
Mass (kg)
RCS (m²)

External: N2YO · Heavens-Above · Gunter

§ Orbital elements

Epoch: 2026-05-25T04:23:03.444864Z

Period
96.30 min
Inclination
97.4993°
Eccentricity
0.0065580
Mean motion
14.95349725 rev/d
Perigee alt
535.6 km
Apogee alt
626.9 km
Semi-major
6,959.4 km
B*
1.5224e-4
RAAN
159.2654°
Arg perigee
308.0149°
Mean anomaly
51.5163°
Rev number
46,552

§ Raw data

COSMOS 25231 42986U 17037E   26145.18267876  .00001693  00000+0  15224-3 0  99952 42986  97.4993 159.2654 0065580 308.0149  51.5163 14.95349725465525

JSON: /api/v1/satellites/42986 · /tle

For live sub-satellite position, see the globe view (requires WebGL).

§ Visibility from observer

Set your observer location to see the next 7 days of passes ≥ 10°. The values pass through the URL so the page stays shareable.

No JS? Fill the form by hand. The geolocation button needs JavaScript.